Location: Ladrillo (historical)
(32.8195°N, 117.2231°W)
Time: 19:42:51
(UTC+00:00)

X-37B - Visible Passes

Search period start: 22 January 2021 00:00
Search period end: 01 February 2021 00:00
Orbit: 385 x 390 km, 45.0° (Epoch: 20 January)

Date Brightness Start Highest point End Pass type
(mag) Time Alt. Az. Time Alt. Az. Time Alt. Az.
22 Jan 2.6 01:48:01 10° WNW 01:50:27 20° NNW 01:52:53 10° NNE visible
23 Jan 3.2 02:28:21 10° NNW 02:29:15 11° N 02:30:00 10° N visible
28 Jan 2.9 02:27:07 10° NNW 02:28:36 13° NNE 02:28:36 13° NNE visible
29 Jan 3.1 03:04:34 10° NW 03:05:25 15° NNW 03:05:25 15° NNW visible
30 Jan 2.4 02:06:33 10° NNW 02:08:50 18° NNE 02:10:02 15° NE visible
31 Jan 0.9 02:44:15 10° NW 02:47:07 51° N 02:47:07 51° N visible
